Location: Poughquag
(41.6090°N, 73.6820°W)
Time: 02:43:41
(UTC-04:00)

Explorer 11/Cluster Stage 4 - Pass Details

Date: 05 June 2020
Orbit: 467 x 1259 km, 28.8° (Epoch: 06 July)

Event Time Altitude Azimuth Distance (km) Brightness Sun altitude
Rises 09:37:51 0° 254° (WSW) 3,689 9.6 45.2°
Reaches altitude 10° 09:41:43 10° 232° (SW) 2,894 9.3 45.9°
Maximum altitude 09:45:30 15° 201° (SSW) 2,660 9.4 46.6°
Drops below altitude 10° 09:49:33 10° 169° (S) 3,123 10.0 47.3°
Sets 09:54:02 0° 149° (SSE) 4,162 10.7 48.2°
